Visibility
15.0 15.0 15.0 15.0 15.0 15.0 15.0 15.0 15.0 15.0 15.0 15.0 15.0 15.0 15.0 15.0 15.0 15.0 15.0 15.0 15.0 15.0 15.0 15.0 15.0 15.0 15.0 15.0 15.0 15.0 15.0 15.0 15.0 13.8 15.0 10.5 11.4 15.0 15.0 15.0 15.0 14.1 15.0 15.0 15.0 11.0 15.0 15.0 15.0 15.0 15.0 15.0 15.0 3.4
7.6 15.0 15.0 15.0 15.0 15.0 15.0 15.0 15.0 15.0 15.0 15.0 15.0 15.0 15.0 15.0 15.0 15.0 15.0 15.0 15.0 15.0 15.0 15.0 15.0 15.0 15.0 15.0 15.0 5.1 15.0 15.0 15.0 15.0 10.4 4.4 13.8 5.5 13.9 12.5 15.0 14.7 15.0 15.0 15.0 15.0 15.0 15.0 15.0 15.0 15.0 15.0 8.1 0.2
6.6 15.0 15.0 15.0 15.0 15.0 15.0 15.0 15.0 15.0 15.0 15.0 15.0 15.0 15.0 15.0 15.0 15.0 15.0 15.0 15.0 15.0 15.0 15.0 15.0 15.0 15.0 15.0 15.0 14.6 2.7 13.8 7.1 15.0 14.0 5.1 0.3 14.9 5.8 15.0 15.0 15.0 15.0 15.0 15.0 15.0 15.0 15.0 15.0 15.0 15.0 15.0 13.3 0.9
5.9 14.9 15.0 15.0 15.0 15.0 15.0 15.0 15.0 15.0 15.0 15.0 15.0 15.0 15.0 15.0 15.0 15.0 15.0 15.0 15.0 15.0 15.0 15.0 15.0 15.0 15.0 15.0 15.0 15.0 15.0 11.3 12.4 7.4 0.1 3.6 4.0 15.0 7.6 11.6 9.7 15.0 15.0 15.0 15.0 15.0 15.0 15.0 15.0 15.0 15.0 15.0 15.0 14.2
5.0 8.0 14.8 15.0 15.0 15.0 15.0 15.0 15.0 15.0 15.0 15.0 15.0 15.0 15.0 15.0 15.0 15.0 15.0 15.0 15.0 15.0 15.0 15.0 15.0 15.0 15.0 15.0 15.0 15.0 15.0 15.0 2.4 3.1 1.6 2.4 4.3 2.8 0.7 0.7 1.4 15.0 15.0 15.0 15.0 15.0 15.0 15.0 15.0 15.0 10.4 2.0 4.3 0.4
7.1 4.0 6.3 10.0 15.0 15.0 15.0 15.0 15.0 15.0 12.3 8.7 9.3 13.0 15.0 15.0 15.0 15.0 15.0 15.0 15.0 15.0 15.0 14.9 15.0 15.0 15.0 15.0 15.0 3.6 15.0 5.9 5.3 3.8 3.1 0.8 0.6 7.2 1.9 1.6 15.0 15.0 15.0 15.0 15.0 15.0 15.0 15.0 15.0 15.0 2.9 1.9 1.1 0.5
5.7 6.2 5.3 6.3 9.3 15.0 15.0 15.0 15.0 14.4 13.3 4.3 4.2 8.8 15.0 15.0 15.0 10.9 15.0 15.0 15.0 15.0 15.0 5.0 7.3 15.0 15.0 15.0 4.7 6.6 15.0 4.2 3.2 3.2 0.7 0.7 1.8 5.4 1.5 1.8 15.0 15.0 15.0 15.0 15.0 9.3 15.0 15.0 15.0 15.0 15.0 10.0 15.0 15.0
5.4 5.1 4.3 3.0 12.3 15.0 15.0 7.8 4.7 3.5 4.2 4.5 3.6 7.7 15.0 15.0 10.2 6.9 15.0 15.0 15.0 15.0 15.0 12.5 4.6 12.0 15.0 4.0 3.2 3.4 2.8 2.4 1.2 2.0 0.5 0.7 0.6 0.9 0.9 15.0 15.0 15.0 15.0 15.0 15.0 14.9 15.0 15.0 15.0 15.0 15.0 15.0 10.9 15.0
5.0 6.5 5.0 5.4 4.9 9.7 7.3 5.2 3.0 3.2 3.3 3.6 3.6 10.8 14.8 0.1 0.1 0.3 15.0 15.0 15.0 15.0 15.0 15.0 14.5 15.0 15.0 10.2 2.1 0.6 1.2 0.7 1.2 1.2 1.6 0.6 1.9 2.6 15.0 15.0 15.0 15.0 15.0 15.0 15.0 13.5 15.0 5.8 15.0 15.0 13.8 14.3 2.8 8.8
15.0 4.4 6.2 7.6 3.6 3.8 3.5 2.7 3.4 3.8 3.5 5.5 4.6 0.1 0.1 0.0 7.3 0.9 0.2 2.2 15.0 15.0 15.0 15.0 15.0 15.0 15.0 15.0 6.7 3.9 1.5 0.8 1.5 4.0 0.6 0.6 8.6 15.0 15.0 15.0 15.0 15.0 15.0 5.8 6.0 15.0 14.6 6.7 8.4 14.6 7.4 2.0 0.2 0.5
15.0 14.1 4.2 6.7 5.7 2.7 2.4 2.4 3.0 3.4 5.3 0.2 0.1 0.1 0.0 0.0 0.2 0.1 0.2 6.0 15.0 15.0 15.0 15.0 15.0 15.0 15.0 15.0 15.0 15.0 13.2 2.2 3.8 14.0 1.1 12.0 4.2 15.0 15.0 11.3 15.0 15.0 6.2 9.9 5.3 11.4 3.4 0.9 1.2 1.1 3.2 9.5 1.3 1.0
10.0 10.8 10.5 4.3 3.1 2.5 2.8 3.6 7.1 5.2 0.5 2.1 0.4 0.3 0.1 0.1 0.1 0.2 0.2 15.0 15.0 15.0 3.6 5.0 15.0 15.0 15.0 15.0 14.0 4.4 13.0 9.8 14.9 4.9 1.2 3.6 15.0 15.0 14.9 12.5 15.0 12.8 3.8 3.6 2.2 3.5 8.7 2.6 2.5 0.6 1.3 3.1 2.7 0.6
12.4 6.8 5.3 1.6 3.0 3.0 4.1 7.6 15.0 7.5 5.1 0.3 0.1 0.1 0.1 0.1 0.1 0.1 7.7 15.0 7.9 3.9 1.6 15.0 15.0 15.0 15.0 15.0 8.9 15.0 15.0 6.4 8.4 1.1 8.3 15.0 15.0 15.0 15.0 8.6 11.4 13.5 3.7 2.7 3.6 3.9 3.4 3.0 14.8 1.1 1.5 4.3 4.7 1.2
15.0 10.2 4.8 3.6 4.6 3.9 5.7 5.7 4.9 6.3 10.6 0.1 0.1 0.1 0.1 0.2 2.0 15.0 15.0 15.0 5.2 1.4 9.3 15.0 15.0 15.0 15.0 15.0 15.0 15.0 14.5 3.5 1.9 2.3 15.0 15.0 15.0 15.0 15.0 14.6 11.0 15.0 4.6 10.3 15.0 15.0 15.0 15.0 6.6 15.0 4.9 4.8 4.2 2.2
9.8 9.4 5.2 4.2 6.3 8.1 6.0 5.6 7.4 0.2 0.1 0.1 0.1 0.1 0.1 1.0 3.4 3.3 6.6 11.8 1.7 11.0 15.0 15.0 15.0 15.0 14.2 8.6 8.3 11.8 1.3 5.1 15.0 15.0 15.0 15.0 15.0 15.0 15.0 15.0 15.0 15.0 15.0 15.0 15.0 15.0 15.0 15.0 8.4 5.0 10.4 4.8 5.6 3.3
5.5 3.3 4.6 4.2 6.5 6.5 6.2 0.1 0.3 0.2 0.1 0.1 0.1 0.1 0.4 11.6 1.4 3.0 6.6 1.1 5.3 15.0 15.0 15.0 15.0 15.0 15.0 15.0 3.9 11.9 15.0 15.0 15.0 15.0 15.0 9.1 12.4 11.5 15.0 15.0 15.0 15.0 15.0 15.0 15.0 15.0 15.0 15.0 15.0 13.0 8.3 4.9 6.6 2.5
5.6 0.6 4.4 7.2 4.6 0.1 0.2 0.4 0.1 0.1 0.1 0.1 0.1 3.0 6.6 9.4 15.0 9.7 1.3 2.7 15.0 15.0 15.0 15.0 15.0 15.0 15.0 5.3 7.7 15.0 15.0 15.0 15.0 15.0 15.0 15.0 15.0 15.0 15.0 15.0 15.0 15.0 15.0 15.0 15.0 15.0 15.0 15.0 15.0 14.7 4.0 15.0 5.4 2.7
0.3 5.8 5.8 0.0 0.1 0.4 0.1 0.1 0.1 0.1 0.1 0.5 3.5 2.9 12.5 4.5 0.2 0.7 7.9 15.0 15.0 15.0 15.0 15.0 15.0 7.2 15.0 15.0 15.0 15.0 15.0 15.0 15.0 15.0 15.0 15.0 15.0 15.0 15.0 15.0 15.0 15.0 15.0 15.0 15.0 15.0 15.0 15.0 13.8 5.8 6.7 8.7 5.3 2.8
0.1 0.1 0.0 8.1 8.0 0.3 0.1 0.1 0.1 0.1 0.3 2.2 1.2 0.7 0.1 1.1 10.2 15.0 15.0 15.0 15.0 15.0 15.0 15.0 15.0 15.0 15.0 15.0 15.0 15.0 15.0 15.0 15.0 15.0 15.0 15.0 15.0 15.0 15.0 15.0 15.0 15.0 15.0 15.0 15.0 15.0 15.0 15.0 14.2 6.4 4.4 4.9 3.0 1.3
0.0 0.1 0.1 0.1 1.1 0.1 0.1 0.1 0.1 0.4 0.9 0.3 0.1 0.1 0.1 0.6 15.0 15.0 15.0 15.0 15.0 15.0 15.0 15.0 15.0 15.0 15.0 15.0 15.0 15.0 15.0 15.0 15.0 15.0 15.0 15.0 15.0 15.0 15.0 15.0 15.0 15.0 15.0 15.0 11.7 15.0 9.6 10.7 15.0 14.8 6.5 11.2 1.4 1.0
1.0 0.0 0.1 0.3 0.2 0.2 0.2 0.1 0.1 0.1 0.1 0.1 0.1 1.1 2.2 11.6 6.7 15.0 15.0 15.0 15.0 15.0 15.0 15.0 15.0 15.0 15.0 15.0 15.0 15.0 15.0 15.0 15.0 15.0 15.0 15.0 15.0 15.0 15.0 15.0 7.6 14.9 15.0 15.0 4.1 4.9 0.4 0.4 1.5 1.7 1.3 4.5 2.3 0.5
0.0 0.2 0.1 0.1 0.1 0.1 0.1 0.1 0.1 0.1 0.1 0.1 0.2 11.8 13.6 14.2 5.3 9.3 5.3 15.0 15.0 15.0 15.0 15.0 15.0 15.0 15.0 15.0 15.0 15.0 15.0 15.0 15.0 15.0 15.0 15.0 12.4 4.4 12.8 15.0 4.1 4.1 4.1 5.7 13.0 3.6 0.8 0.7 1.1 1.3 0.4 1.4 0.8 0.3
0.4 0.7 0.3 0.3 0.2 0.1 0.1 0.1 0.2 0.8 0.4 0.1 0.1 0.2 1.9 14.0 3.5 3.0 3.7 15.0 15.0 15.0 15.0 15.0 15.0 15.0 15.0 15.0 15.0 15.0 15.0 15.0 15.0 15.0 15.0 15.0 15.0 14.4 4.2 4.5 4.8 4.0 3.4 11.8 0.7 0.6 0.6 0.8 3.0 0.5 0.4 0.4 0.4 0.3
0.3 0.2 0.1 0.2 0.2 0.1 0.3 14.4 14.3 11.2 7.2 1.6 1.4 13.2 4.5 4.4 2.7 3.3 10.7 15.0 15.0 15.0 15.0 15.0 6.7 10.4 7.7 13.9 6.4 15.0 15.0 15.0 8.0 6.2 5.8 4.4 4.1 4.8 12.9 4.1 4.1 2.8 2.7 2.3 0.5 0.4 0.2 0.3 12.3 1.8 0.2 0.3 0.3 0.2
0.5 0.1 0.2 0.3 9.2 15.0 15.0 9.1 1.0 2.5 15.0 15.0 15.0 4.2 5.0 2.2 8.4 4.2 15.0 15.0 15.0 15.0 15.0 14.4 14.4 14.9 15.0 15.0 15.0 15.0 15.0 15.0 15.0 15.0 13.7 4.2 4.1 3.6 3.6 4.1 5.2 4.1 4.4 1.2 0.7 0.3 0.4 1.1 4.1 4.1 0.9 0.3 0.3 0.2
0.2 8.1 14.7 15.0 15.0 15.0 4.9 0.2 0.4 13.5 15.0 7.9 15.0 11.3 5.2 9.1 3.5 14.3 15.0 15.0 15.0 15.0 13.0 15.0 15.0 5.2 5.0 15.0 15.0 9.2 15.0 15.0 11.6 4.1 15.0 8.7 6.1 4.1 4.1 4.0 4.0 12.7 7.7 4.2 1.1 0.9 0.8 2.3 4.1 4.1 4.0 0.8 0.5 0.1
0.2 3.3 12.1 4.1 2.1 2.6 5.8 15.0 15.0 15.0 15.0 15.0 14.9 3.2 7.4 15.0 15.0 15.0 15.0 15.0 15.0 15.0 15.0 15.0 15.0 15.0 15.0 15.0 9.0 15.0 5.0 9.4 15.0 13.6 8.9 4.1 4.8 7.6 8.1 3.7 3.6 12.4 6.8 4.1 2.9 2.0 7.1 14.8 10.3 5.3 6.8 4.7 0.7 0.3
6.0 7.3 4.2 6.1 14.7 15.0 15.0 15.0 15.0 15.0 15.0 15.0 15.0 13.4 15.0 15.0 15.0 15.0 15.0 9.4 14.3 4.7 5.6 6.1 6.6 15.0 15.0 15.0 14.6 4.1 4.0 2.7 3.0 2.8 3.2 9.4 4.2 4.1 4.1 3.7 2.8 8.6 0.5 0.6 2.6 14.0 14.8 15.0 15.0 15.0 7.4 12.7 1.1 0.3
15.0 15.0 15.0 15.0 15.0 15.0 15.0 15.0 15.0 15.0 15.0 15.0 15.0 15.0 15.0 15.0 15.0 15.0 12.8 4.0 4.0 14.1 8.0 5.6 6.6 3.7 3.9 3.2 3.0 2.6 1.8 1.8 1.9 2.4 3.9 4.1 9.2 15.0 6.8 4.1 4.1 3.5 1.3 1.2 7.3 7.7 3.8 8.5 13.7 13.6 15.0 6.5 2.8 0.2
15.0 15.0 15.0 15.0 15.0 15.0 10.9 4.4 6.2 3.2 6.7 15.0 13.5 15.0 15.0 15.0 15.0 15.0 8.7 3.4 4.4 14.3 15.0 14.3 11.1 13.8 13.9 1.3 6.9 5.8 2.9 1.9 2.1 7.1 4.8 8.4 15.0 15.0 4.3 2.0 1.3 1.0 0.6 1.6 5.8 9.4 13.9 0.7 4.0 1.5 0.8 1.8 1.7 0.3
14.6 15.0 15.0 15.0 14.5 3.1 2.4 2.7 4.0 13.0 15.0 15.0 5.3 15.0 15.0 9.3 15.0 15.0 12.2 11.4 15.0 11.0 8.5 14.1 5.8 3.4 4.1 3.6 2.9 2.0 7.3 11.4 3.6 3.3 4.3 4.3 9.0 4.1 4.2 3.9 0.8 1.5 1.0 3.3 4.1 4.1 3.7 0.3 0.9 2.6 1.7 3.6 0.6 0.2
15.0 15.0 15.0 15.0 4.9 2.1 3.6 5.9 2.8 15.0 7.7 15.0 15.0 5.9 15.0 15.0 15.0 15.0 14.8 15.0 8.3 4.1 1.2 1.2 15.0 15.0 14.9 15.0 15.0 14.5 15.0 8.8 4.6 3.1 1.1 1.3 2.8 5.5 5.6 3.9 1.5 1.0 1.6 3.5 4.1 4.1 3.9 1.2 1.4 0.9 1.7 0.4 0.7 0.9
5.9 7.1 5.3 6.8 3.9 2.7 2.3 10.9 5.9 10.7 10.9 6.2 6.8 3.8 4.4 11.6 15.0 15.0 15.0 13.9 15.0 15.0 15.0 15.0 15.0 15.0 15.0 15.0 15.0 2.6 9.9 5.1 0.3 2.2 11.0 11.9 4.5 0.7 0.3 2.9 0.8 0.5 0.9 1.6 2.7 3.3 1.4 0.5 0.6 2.6 2.8 0.6 0.3 1.6